Tracking 27401 objects as of 3-Jun-2023
HD Live streaming from Space Station
objects crossing your sky now

COSMOS 660

Track COSMOS 660 now!
10-day predictions
COSMOS 660 is classified as:


NORAD ID: 7337
Int'l Code: 1974-044A
Perigee: 379.9 km
Apogee: 1,106.3 km
Inclination: 82.9 °
Period: 99.5 minutes
Semi major axis: 7114 km
RCS: 2.9855 m2 (large)
Launch date: June 18, 1974
Source: Commonwealth of Independent States (former USSR) (CIS)
Launch site: PLESETSK MISSILE AND SPACE COMPLEX (PKMTR)
Your satellite tracking list
Your tracking list is empty




NASA's NSSDC Master Catalog

Two Line Element Set (TLE):
1 07337U 74044A   23154.51703649  .00007479  00000-0  36741-3 0  9990
2 07337  82.9425 135.1444 0510558 326.4223  30.5548 14.46839767479987
Source of the keplerian elements: AFSPC